When you browse on this site, cookies collect data to enhance your experience and personalize the content and advertising you see.
Visit our Privacy Policy to learn more. By continuing to use the site, you agree to this use of cookies and data.
EN

Hourly Weather Bonn

Today, 7 August, Friday

Time Temperature Precipitation Wind Pressure Humidity
00:00 +22°C° 0 mm 1 mps 759 mmHg 64%
01:00 +22°C° 0 mm 1 mps 759 mmHg 65%
02:00 +22°C° 0 mm 1 mps 758 mmHg 66%
03:00 +21°C° 0 mm 1 mps 758 mmHg 67%
04:00 +22°C° 0 mm 1 mps 758 mmHg 66%
05:00 +23°C° 0 mm 1 mps 759 mmHg 65%
06:00 +24°C° 0 mm 1 mps 759 mmHg 64%
07:00 +26°C° 0 mm 1 mps 759 mmHg 57%
08:00 +29°C° 0 mm 1 mps 759 mmHg 50%
09:00 +31°C° 0 mm 1 mps 759 mmHg 43%
10:00 +32°C° 0 mm 1 mps 759 mmHg 39%
11:00 +33°C° 0 mm 1 mps 758 mmHg 35%
12:00 +34°C° 0 mm 1 mps 758 mmHg 31%
13:00 +34°C° 0 mm 1 mps 758 mmHg 31%
14:00 +34°C° 0 mm 1 mps 758 mmHg 30%
15:00 +34°C° 0 mm 1 mps 758 mmHg 30%
16:00 +33°C° 0 mm 1 mps 758 mmHg 35%
17:00 +32°C° 0 mm 1 mps 757 mmHg 41%
18:00 +30°C° 0 mm 1 mps 757 mmHg 46%
19:00 +29°C° 0 mm 1 mps 758 mmHg 49%
20:00 +27°C° 0 mm 1 mps 758 mmHg 53%
21:00 +26°C° 0 mm 1 mps 758 mmHg 56%
22:00 +25°C° 0 mm 1 mps 758 mmHg 58%
23:00 +25°C° 0 mm 1 mps 758 mmHg 60%

Tomorrow, 8 August, Saturday

Time Temperature Precipitation Wind Pressure Humidity
00:00 +24°C° 0 mm 1 mps 758 mmHg 62%
01:00 +24°C° 0 mm 1 mps 758 mmHg 65%
02:00 +24°C° 0 mm 1 mps 758 mmHg 67%
03:00 +23°C° 0 mm 1 mps 758 mmHg 69%
04:00 +24°C° 0 mm 1 mps 758 mmHg 69%
05:00 +25°C° 0 mm 1 mps 758 mmHg 69%
06:00 +26°C° 0 mm 1 mps 758 mmHg 68%
07:00 +28°C° 0 mm 1 mps 759 mmHg 62%
08:00 +30°C° 0 mm 1 mps 759 mmHg 55%
09:00 +33°C° 0 mm 1 mps 759 mmHg 48%
10:00 +34°C° 0 mm 1 mps 758 mmHg 45%
11:00 +35°C° 0 mm 1 mps 758 mmHg 41%
12:00 +36°C° 0 mm 1 mps 758 mmHg 37%
13:00 +36°C° 0 mm 1 mps 758 mmHg 37%
14:00 +35°C° 0 mm 1 mps 758 mmHg 36%
15:00 +35°C° 0 mm 1 mps 757 mmHg 36%
16:00 +34°C° 0 mm 1 mps 757 mmHg 40%
17:00 +33°C° 0 mm 1 mps 757 mmHg 45%
18:00 +32°C° 0 mm 1 mps 757 mmHg 49%
19:00 +30°C° 0 mm 1 mps 757 mmHg 52%
20:00 +29°C° 0 mm 1 mps 758 mmHg 55%
21:00 +27°C° 0 mm 1 mps 758 mmHg 58%
22:00 +27°C° 0 mm 1 mps 758 mmHg 60%
23:00 +26°C° 0 mm 1 mps 758 mmHg 61%

Day after tomorrow, 9 August, Sunday

Time Temperature Precipitation Wind Pressure Humidity
00:00 +25°C° 0 mm 1 mps 757 mmHg 63%
01:00 +25°C° 0 mm 1 mps 757 mmHg 65%
02:00 +25°C° 0 mm 1 mps 757 mmHg 66%
03:00 +24°C° 0 mm 1 mps 757 mmHg 67%
04:00 +25°C° 0 mm 1 mps 757 mmHg 66%
05:00 +26°C° 0 mm 1 mps 757 mmHg 65%
06:00 +26°C° 0 mm 1 mps 757 mmHg 64%
07:00 +28°C° 0 mm 1 mps 757 mmHg 57%
08:00 +31°C° 0 mm 1 mps 757 mmHg 50%
09:00 +33°C° 0 mm 1 mps 757 mmHg 43%
10:00 +35°C° 0 mm 2 mps 757 mmHg 40%
11:00 +36°C° 0 mm 2 mps 757 mmHg 36%
12:00 +37°C° 0 mm 2 mps 756 mmHg 33%
13:00 +36°C° 0 mm 2 mps 756 mmHg 33%
14:00 +36°C° 0 mm 2 mps 756 mmHg 33%
15:00 +36°C° 0 mm 2 mps 755 mmHg 33%
16:00 +35°C° 0 mm 2 mps 755 mmHg 38%
17:00 +34°C° 0 mm 2 mps 755 mmHg 44%
18:00 +31°C° 0 mm 2 mps 755 mmHg 50%
19:00 +30°C° 0 mm 2 mps 755 mmHg 52%
20:00 +28°C° 0 mm 2 mps 755 mmHg 55%
21:00 +27°C° 0 mm 2 mps 756 mmHg 57%
22:00 +26°C° 0 mm 2 mps 756 mmHg 59%
23:00 +26°C° 0 mm 2 mps 756 mmHg 61%

10 August, Monday

Time Temperature Precipitation Wind Pressure Humidity
00:00 +25°C° 0 mm 2 mps 755 mmHg 63%
01:00 +25°C° 0 mm 1 mps 755 mmHg 65%
02:00 +24°C° 0 mm 1 mps 755 mmHg 66%
03:00 +24°C° 0 mm 1 mps 755 mmHg 68%
04:00 +25°C° 0 mm 1 mps 755 mmHg 67%
05:00 +25°C° 0 mm 1 mps 755 mmHg 66%
06:00 +26°C° 0 mm 1 mps 755 mmHg 66%
07:00 +28°C° 0 mm 2 mps 755 mmHg 59%
08:00 +30°C° 0 mm 2 mps 755 mmHg 52%
09:00 +32°C° 0 mm 2 mps 755 mmHg 45%
10:00 +34°C° 0 mm 2 mps 755 mmHg 41%
11:00 +35°C° 0 mm 2 mps 755 mmHg 38%
12:00 +36°C° 0 mm 2 mps 755 mmHg 34%
13:00 +35°C° 0 mm 2 mps 754 mmHg 35%
14:00 +35°C° 0 mm 2 mps 754 mmHg 36%
15:00 +34°C° 0 mm 1 mps 754 mmHg 37%
16:00 +34°C° 0 mm 2 mps 754 mmHg 42%
17:00 +32°C° 0 mm 2 mps 754 mmHg 46%
18:00 +31°C° 0 mm 2 mps 754 mmHg 51%
19:00 +30°C° 0 mm 2 mps 754 mmHg 54%
20:00 +28°C° 0 mm 2 mps 755 mmHg 58%
21:00 +27°C° 0 mm 2 mps 755 mmHg 61%
22:00 +26°C° 0 mm 2 mps 755 mmHg 63%
23:00 +26°C° 0 mm 2 mps 755 mmHg 66%

11 August, Tuesday

Time Temperature Precipitation Wind Pressure Humidity
00:00 +25°C° 0 mm 2 mps 755 mmHg 68%
01:00 +25°C° 0 mm 2 mps 755 mmHg 70%
02:00 +24°C° 0 mm 1 mps 755 mmHg 72%
03:00 +24°C° 0 mm 1 mps 755 mmHg 74%
04:00 +24°C° 0 mm 1 mps 755 mmHg 72%
05:00 +25°C° 0 mm 1 mps 755 mmHg 70%
06:00 +26°C° 0 mm 1 mps 755 mmHg 68%
07:00 +28°C° 0 mm 1 mps 755 mmHg 61%
08:00 +30°C° 0 mm 1 mps 755 mmHg 53%
09:00 +32°C° 0 mm 2 mps 755 mmHg 46%
10:00 +34°C° 0 mm 2 mps 755 mmHg 42%
11:00 +34°C° 0 mm 1 mps 755 mmHg 38%
12:00 +35°C° 0 mm 1 mps 755 mmHg 34%
13:00 +36°C° 0 mm 1 mps 754 mmHg 33%
14:00 +36°C° 0 mm 1 mps 754 mmHg 32%
15:00 +36°C° 0 mm 1 mps 754 mmHg 32%
16:00 +35°C° 0 mm 1 mps 754 mmHg 37%
17:00 +33°C° 0 mm 1 mps 754 mmHg 43%
18:00 +32°C° 0 mm 2 mps 754 mmHg 48%
19:00 +30°C° 0 mm 2 mps 754 mmHg 52%
20:00 +29°C° 0 mm 2 mps 754 mmHg 56%
21:00 +27°C° 0 mm 2 mps 755 mmHg 60%
22:00 +27°C° 0 mm 2 mps 755 mmHg 62%
23:00 +26°C° 0 mm 2 mps 755 mmHg 65%

12 August, Wednesday

Time Temperature Precipitation Wind Pressure Humidity
00:00 +25°C° 0 mm 2 mps 755 mmHg 67%
01:00 +25°C° 0 mm 1 mps 755 mmHg 69%
02:00 +25°C° 0 mm 1 mps 755 mmHg 70%
03:00 +24°C° 0 mm 1 mps 755 mmHg 72%
04:00 +25°C° 0 mm 1 mps 755 mmHg 71%
05:00 +26°C° 0 mm 1 mps 755 mmHg 69%
06:00 +26°C° 0 mm 1 mps 755 mmHg 68%
07:00 +28°C° 0 mm 1 mps 755 mmHg 61%
08:00 +30°C° 0 mm 1 mps 755 mmHg 54%
09:00 +32°C° 0 mm 2 mps 755 mmHg 47%
10:00 +34°C° 0 mm 1 mps 755 mmHg 43%
11:00 +35°C° 0 mm 1 mps 754 mmHg 39%
12:00 +37°C° 0 mm 1 mps 754 mmHg 34%
13:00 +36°C° 0 mm 1 mps 754 mmHg 34%
14:00 +36°C° 0 mm 1 mps 754 mmHg 34%
15:00 +36°C° 0 mm 1 mps 753 mmHg 34%
16:00 +35°C° 0 mm 1 mps 753 mmHg 38%
17:00 +33°C° 0 mm 1 mps 753 mmHg 43%
18:00 +32°C° 0 mm 2 mps 754 mmHg 47%
19:00 +31°C° 0 mm 2 mps 754 mmHg 51%
20:00 +29°C° 0 mm 2 mps 754 mmHg 54%
21:00 +28°C° 0 mm 2 mps 754 mmHg 58%
22:00 +27°C° 0 mm 2 mps 754 mmHg 61%
23:00 +26°C° 0 mm 1 mps 754 mmHg 64%
Show more